Other Public Products
Issued by NWS Charleston, SC

Current Version | Previous Version | Text Only | Print | Product List | Glossary On
Versions: 1 2 3 4 5 6 7 8 9 10 11 12 13 14 15 16 17 18 19 20 21 22 23 24 25 26 27 28 29 30 31 32 33 34 35 36 37 38 39 40 41 42 43 44 45 46 47 48 49 50
000
FPUS82 KCHS 251925
OPUCHS

TEST...KCHS/KSAV Gateway Observations...TEST
National Weather Service Charleston SC
300 PM EDT SUN SEP 25 2022

NOTE: "fair" indicates few or no clouds below 12,000 feet with no
significant weather and/or obstructions to visibility.

SCZ050-WAZ558-NCZ071-TXZ119-213-PAZ071-DCZ001-FLZ074-172-MI076-
NYZ176-178-MAZ016-IL014-TNZ027-NJZ106-GAZ044-MD014-252000-

...Gateway Observations for Charleston International...

CITY           SKY/WX    TMP DP  RH WIND       PRES   REMARKS
Chas Airport   MOSUNNY   84  61  45 S12       29.89F
Seattle        MOSUNNY   70  52  52 N8        30.17F
Charlotte      PTSUNNY   74  58  57 SW10      29.86F
Dallas DFW     PTSUNNY   95  59  30 VRB7      29.95F HX  94
Dallas Love    MOSUNNY   95  66  38 VRB3      29.95F HX  98
Philladelphia  TSTM      67  59  75 NW15G33   29.70S
Wash National  CLOUDY    79  59  50 SW10      29.67F
Baltimore      CLOUDY    76  58  53 W8        29.69R
Miami          MOSUNNY   88  74  63 E10       29.85F HX  96
Detroit        RAIN      60  56  86 W8        29.63F
Newark         PTSUNNY   74  54  49 SW10G20   29.65F
Laguardia      PTSUNNY   73  54  51 SW12      29.66F
J F K          PTSUNNY   76  58  53 SW16      29.68F
Boston Logan   CLOUDY    69  55  60 S15       29.69F
Ft. Lauderdale MOSUNNY   90  74  59 E18G35    29.85F HX  99
Chicago O`Hare PTSUNNY   65  53  65 W13G23    29.77S
Chicago Midway PTSUNNY   67  53  61 W14G25    29.78S
Houston Bush   MOSUNNY   93  64  38 SE6       29.94F HX  94
Houston Hobby  MOSUNNY   92  62  36 SE7       29.94F HX  92
Nashville      PTSUNNY   86  62  44 SW8G21    29.86F
Atlanta        PTSUNNY   77  60  55 SW10      29.95F
London Heathrw   N/A     55  41  58 SW12      29.94F

$$

GAZ044-118-TXZ119-213-NCZ071-DCZ001-MDZ014-506-PAZ021-071-NJZ106-
NYZ176-178-MAZ106-OHZ011-021-055-MIZ076-KYZ091-ILZ014-INZ047-
MNZ060-ONZ431-252000-

...Gateway Observations for Savannah International...

CITY           SKY/WX    TMP DP  RH WIND       PRES   REMARKS
Savannah Arpt  MOSUNNY   85  57  38 VRB3      29.91F
Atlanta        PTSUNNY   77  60  55 SW10      29.95F
Charlotte      PTSUNNY   74  58  57 SW10      29.86F
Dallas DFW     PTSUNNY   95  59  30 VRB7      29.95F HX  94
Houston Bush   MOSUNNY   93  64  38 SE6       29.94F HX  94
Wash National  CLOUDY    79  59  50 SW10      29.67F
Wash Dulles    PTSUNNY   75  60  59 NW6       29.69R
Baltimore      CLOUDY    76  58  53 W8        29.69R
Philadelphia   TSTM      67  59  75 NW15G33   29.70S
Newark         PTSUNNY   74  54  49 SW10G20   29.65F
Laguardia      PTSUNNY   73  54  51 SW12      29.66F
J F K          PTSUNNY   76  58  53 SW16      29.68F
Boston         CLOUDY    69  55  60 S15       29.69F
Pittsburg      PTSUNNY   69  53  56 W15G25    29.60F
Akron          LGT RAIN  61  56  83 W13       29.65R
Cleveland      PTSUNNY   66  55  67 W10       29.61S
Cincinnati     MOSUNNY   72  52  49 W17       29.77F
Columbus       CLOUDY    70  53  54 NW18G24   29.71S
Detroit        RAIN      60  56  86 W8        29.63F
Chicago O`Hare PTSUNNY   65  53  65 W13G23    29.77S
Minneapolis    PTSUNNY   70  41  34 NW21G40   29.89R
Indianapolis   PTSUNNY   70  52  52 W20G26    29.81S
Toronto Canada PTSUNNY   64  55  72 E2        29.50F

$$



USA.gov is the U.S. government's official web portal to all federal, state and local government web resources and services.